Location: Cadeilhan
(42.8161°N, 0.3161°E)
Time: 20:43:23
(UTC+00:00)

CZ-4C R/B - Pass Details

Date: 18 February 2020
Orbit: 641 x 1361 km, 63.4° (Epoch: 07 April)

Event Time Altitude Azimuth Distance (km) Brightness Sun altitude
Exits shadow 05:47:22 - 314° (NW) 2,603 4.3 -12.6°
Reaches altitude 10° 05:47:54 10° 319° (NW) 2,532 4.3 -12.5°
Maximum altitude 05:50:38 13° 347° (NNW) 2,415 4.4 -12.0°
Drops below altitude 10° 05:53:35 10° 14° (NNE) 2,769 5.0 -11.5°
Sets 05:58:11 0° 40° (NE) 3,909 6.2 -10.6°
